• In Netherlands
  • List of Countries
  • For 7 days
  • Water Temperature
  • Satellite Maps
  • Weather Map
  • Weather Widgets
  • user-avatar
    Login

    Hourly Weather Malanje

    Today, 26 February, Sunday

    Time Temperature Precipitation Wind Pressure Humidity
    00:00 +20°C° 0.1 mm 1 mps 665 mmHg 89%
    01:00 +19°C° 0 mm 1 mps 665 mmHg 91%
    02:00 +19°C° 0.1 mm 1 mps 665 mmHg 91%
    03:00 +19°C° 0.1 mm 1 mps 665 mmHg 91%
    04:00 +19°C° 0.1 mm 1 mps 664 mmHg 92%
    05:00 +19°C° 0 mm 1 mps 665 mmHg 91%
    06:00 +20°C° 0 mm 1 mps 665 mmHg 89%
    07:00 +20°C° 0 mm 1 mps 665 mmHg 87%
    08:00 +23°C° 0 mm 1 mps 666 mmHg 78%
    09:00 +25°C° 0 mm 1 mps 666 mmHg 69%
    10:00 +27°C° 0 mm 1 mps 666 mmHg 59%
    11:00 +28°C° 0.1 mm 1 mps 666 mmHg 56%
    12:00 +29°C° 0.1 mm 1 mps 665 mmHg 52%
    13:00 +31°C° 0.1 mm 1 mps 665 mmHg 49%
    14:00 +30°C° 0.5 mm 1 mps 664 mmHg 52%
    15:00 +30°C° 0.5 mm 2 mps 663 mmHg 55%
    16:00 +29°C° 0.5 mm 2 mps 663 mmHg 58%
    17:00 +27°C° 0.3 mm 2 mps 663 mmHg 65%
    18:00 +25°C° 0.3 mm 2 mps 662 mmHg 72%
    19:00 +23°C° 0.3 mm 2 mps 662 mmHg 79%
    20:00 +21°C° 0 mm 2 mps 663 mmHg 82%
    21:00 +20°C° 0 mm 2 mps 663 mmHg 86%
    22:00 +19°C° 0 mm 2 mps 663 mmHg 90%
    23:00 +19°C° 0 mm 2 mps 663 mmHg 90%

    Tomorrow, 27 February, Monday

    Time Temperature Precipitation Wind Pressure Humidity
    00:00 +19°C° 0 mm 2 mps 663 mmHg 91%
    01:00 +18°C° 0 mm 2 mps 663 mmHg 92%
    02:00 +18°C° 0 mm 2 mps 663 mmHg 93%
    03:00 +18°C° 0 mm 2 mps 662 mmHg 93%
    04:00 +18°C° 0 mm 2 mps 662 mmHg 94%
    05:00 +18°C° 0 mm 2 mps 663 mmHg 93%
    06:00 +18°C° 0 mm 2 mps 663 mmHg 92%
    07:00 +19°C° 0 mm 2 mps 663 mmHg 91%
    08:00 +21°C° 0 mm 2 mps 664 mmHg 79%
    09:00 +24°C° 0 mm 3 mps 665 mmHg 68%
    10:00 +26°C° 0 mm 3 mps 665 mmHg 57%
    11:00 +27°C° 0 mm 3 mps 665 mmHg 53%
    12:00 +29°C° 0 mm 4 mps 664 mmHg 49%
    13:00 +30°C° 0 mm 4 mps 664 mmHg 44%
    14:00 +30°C° 0 mm 4 mps 664 mmHg 45%
    15:00 +30°C° 0 mm 4 mps 663 mmHg 46%
    16:00 +30°C° 0 mm 4 mps 663 mmHg 47%
    17:00 +28°C° 0 mm 4 mps 662 mmHg 52%
    18:00 +25°C° 0 mm 3 mps 662 mmHg 58%
    19:00 +22°C° 0 mm 3 mps 662 mmHg 64%
    20:00 +22°C° 0 mm 3 mps 663 mmHg 67%
    21:00 +21°C° 0 mm 2 mps 663 mmHg 69%
    22:00 +20°C° 0 mm 2 mps 664 mmHg 72%
    23:00 +19°C° 0 mm 2 mps 663 mmHg 78%

    Day after tomorrow, 28 February, Tuesday

    Time Temperature Precipitation Wind Pressure Humidity
    00:00 +19°C° 0 mm 3 mps 663 mmHg 83%
    01:00 +18°C° 0 mm 3 mps 663 mmHg 88%
    02:00 +19°C° 0 mm 3 mps 663 mmHg 91%
    03:00 +19°C° 0 mm 3 mps 663 mmHg 93%
    04:00 +19°C° 0 mm 3 mps 663 mmHg 96%
    05:00 +19°C° 0 mm 3 mps 663 mmHg 94%
    06:00 +19°C° 0 mm 3 mps 664 mmHg 93%
    07:00 +19°C° 0 mm 3 mps 664 mmHg 91%
    08:00 +21°C° 0 mm 3 mps 665 mmHg 82%
    09:00 +22°C° 0 mm 3 mps 665 mmHg 73%
    10:00 +25°C° 0 mm 3 mps 666 mmHg 64%
    11:00 +27°C° 0 mm 3 mps 666 mmHg 56%
    12:00 +28°C° 0 mm 3 mps 665 mmHg 49%
    13:00 +30°C° 0 mm 4 mps 665 mmHg 42%
    14:00 +30°C° 0.1 mm 4 mps 664 mmHg 44%
    15:00 +29°C° 0.1 mm 4 mps 664 mmHg 46%
    16:00 +29°C° 0.1 mm 4 mps 663 mmHg 48%
    17:00 +27°C° 0.1 mm 4 mps 663 mmHg 53%
    18:00 +25°C° 0.1 mm 3 mps 663 mmHg 58%
    19:00 +22°C° 0.1 mm 3 mps 663 mmHg 63%
    20:00 +21°C° 0 mm 3 mps 664 mmHg 65%
    21:00 +21°C° 0 mm 3 mps 664 mmHg 67%
    22:00 +20°C° 0 mm 2 mps 665 mmHg 68%
    23:00 +19°C° 0 mm 2 mps 664 mmHg 73%

    1 March, Wednesday

    Time Temperature Precipitation Wind Pressure Humidity
    00:00 +19°C° 0 mm 2 mps 664 mmHg 77%
    01:00 +18°C° 0 mm 2 mps 663 mmHg 81%
    02:00 +18°C° 0 mm 2 mps 663 mmHg 86%
    03:00 +17°C° 0 mm 2 mps 663 mmHg 91%
    04:00 +17°C° 0 mm 2 mps 662 mmHg 96%
    05:00 +17°C° 0 mm 2 mps 663 mmHg 95%
    06:00 +18°C° 0 mm 2 mps 664 mmHg 94%
    07:00 +18°C° 0 mm 2 mps 664 mmHg 93%
    08:00 +20°C° 0 mm 2 mps 665 mmHg 80%
    09:00 +24°C° 0 mm 2 mps 666 mmHg 68%
    10:00 +26°C° 0 mm 2 mps 666 mmHg 55%
    11:00 +28°C° 0 mm 2 mps 666 mmHg 47%
    12:00 +29°C° 0 mm 3 mps 666 mmHg 40%
    13:00 +31°C° 0 mm 3 mps 665 mmHg 32%
    14:00 +31°C° 0 mm 3 mps 665 mmHg 33%
    15:00 +32°C° 0 mm 4 mps 664 mmHg 33%
    16:00 +32°C° 0 mm 4 mps 664 mmHg 34%
    17:00 +29°C° 0 mm 4 mps 664 mmHg 39%
    18:00 +26°C° 0 mm 3 mps 664 mmHg 44%
    19:00 +24°C° 0 mm 3 mps 664 mmHg 50%
    20:00 +22°C° 0 mm 3 mps 664 mmHg 54%
    21:00 +21°C° 0 mm 3 mps 665 mmHg 57%
    22:00 +20°C° 0 mm 3 mps 665 mmHg 61%
    23:00 +19°C° 0 mm 3 mps 665 mmHg 68%

    2 March, Thursday

    Time Temperature Precipitation Wind Pressure Humidity
    00:00 +18°C° 0 mm 2 mps 664 mmHg 75%
    01:00 +17°C° 0 mm 2 mps 664 mmHg 82%
    02:00 +17°C° 0 mm 2 mps 664 mmHg 86%
    03:00 +17°C° 0 mm 2 mps 664 mmHg 90%
    04:00 +16°C° 0 mm 2 mps 663 mmHg 93%
    05:00 +17°C° 0 mm 2 mps 664 mmHg 92%
    06:00 +17°C° 0 mm 2 mps 664 mmHg 91%
    07:00 +18°C° 0 mm 1 mps 665 mmHg 91%
    08:00 +20°C° 0 mm 2 mps 666 mmHg 76%
    09:00 +24°C° 0 mm 2 mps 666 mmHg 61%
    10:00 +27°C° 0 mm 2 mps 667 mmHg 46%
    11:00 +28°C° 0 mm 3 mps 667 mmHg 40%
    12:00 +30°C° 0 mm 3 mps 666 mmHg 35%
    13:00 +33°C° 0 mm 4 mps 666 mmHg 29%
    14:00 +32°C° 0 mm 4 mps 665 mmHg 30%
    15:00 +32°C° 0 mm 4 mps 664 mmHg 31%
    16:00 +31°C° 0 mm 3 mps 664 mmHg 32%
    17:00 +29°C° 0 mm 3 mps 664 mmHg 36%
    18:00 +27°C° 0 mm 3 mps 664 mmHg 39%
    19:00 +24°C° 0 mm 2 mps 664 mmHg 43%
    20:00 +23°C° 0 mm 2 mps 664 mmHg 46%
    21:00 +21°C° 0 mm 2 mps 664 mmHg 49%
    22:00 +20°C° 0 mm 2 mps 664 mmHg 52%
    23:00 +19°C° 0 mm 2 mps 664 mmHg 57%

    3 March, Friday

    Time Temperature Precipitation Wind Pressure Humidity
    00:00 +18°C° 0 mm 2 mps 664 mmHg 61%
    01:00 +18°C° 0 mm 2 mps 663 mmHg 65%
    02:00 +17°C° 0 mm 2 mps 663 mmHg 69%
    03:00 +17°C° 0 mm 2 mps 663 mmHg 73%
    04:00 +16°C° 0 mm 2 mps 663 mmHg 76%
    05:00 +17°C° 0 mm 2 mps 663 mmHg 74%
    06:00 +19°C° 0 mm 1 mps 664 mmHg 72%
    07:00 +19°C° 0 mm 1 mps 665 mmHg 70%
    08:00 +21°C° 0 mm 2 mps 665 mmHg 58%
    09:00 +25°C° 0 mm 2 mps 666 mmHg 46%
    10:00 +28°C° 0 mm 3 mps 667 mmHg 34%
    11:00 +30°C° 0 mm 3 mps 666 mmHg 31%
    12:00 +33°C° 0 mm 3 mps 666 mmHg 28%
    13:00 +34°C° 0 mm 3 mps 665 mmHg 25%
    14:00 +34°C° 0 mm 4 mps 665 mmHg 25%
    15:00 +34°C° 0 mm 4 mps 664 mmHg 26%
    16:00 +34°C° 0 mm 4 mps 663 mmHg 27%
    17:00 +30°C° 0 mm 4 mps 663 mmHg 31%
    18:00 +27°C° 0 mm 3 mps 663 mmHg 36%
    19:00 +25°C° 0 mm 3 mps 663 mmHg 40%
    20:00 +24°C° 0 mm 3 mps 663 mmHg 43%
    21:00 +22°C° 0 mm 3 mps 663 mmHg 46%
    22:00 +21°C° 0 mm 3 mps 664 mmHg 49%
    23:00 +20°C° 0 mm 3 mps 663 mmHg 56%
    Show more